FENGYUN 1C DEB

Satellite information

Favourite Embed

Satellite Type and Status

DEBRISIN ORBIT

Key statistics

Satellite FENGYUN 1C DEB at a glance.

Uptime

9715

Days in orbit

Revolutions

≈ 14.2

Per day

Orbit

SSO

Sun Synchronous Orbit

Inclination

98.6

Latest

Satellite identification and parameters

Extended collection of information and parameters for FENGYUN 1C DEB.

Object identification

Identified? True

Debris? True

Object name: FENGYUN 1C DEB

International designator: 1999-025DJR

Object number (NORAD): 35089

Object ID (CCSDS): 35089

Country: PEOPLES REPUBLIC OF CHINA (PRC)

Current information (Y/N): Y

RCS size: SMALL

Orbital parameters

Period: 101.451 minutes

Inclination: 98.5584 deg

SMA: 7205.497 km

Apoapsis: 848.36 km

Periapsis: 806.364 km

RAAN: 353.4263 deg

Eccentricy: 0.00291418

Argument of periapsis: 74.1039 deg

Mean anomaly: 286.3346 deg

Mean motion: 14.19406772 rev/day

Mean motion (dot): 0.00001693 rev/day2

B* drag term: 0.00082160985 1/REarth

Two-line elements (TLE)

Creation date: Dec. 9, 2025, 5:41 p.m.

Reference frame: TEME

Reference center: EARTH

Epoch: Dec. 9, 2025, 11:27 a.m. UTC

TLE line 0: 0 FENGYUN 1C DEB

TLE line 1: 1 35089U 99025DJR 25343.47730015 .00001693 00000-0 82161-3 0 9994

TLE line 2: 2 35089 98.5584 353.4263 0029142 74.1039 286.3346 14.19406772608292

Live tracking on map

Real-time ground track for satellite FENGYUN 1C DEB.

In-orbit conjunctions

A list of the most updated potential collisions computed for object FENGYUN 1C DEB.

Target Orbit TCA Probability of collision Miss distance Type
CZ-6A DEB LEO 2025-03-03 11:29:20 0.0002888575 531.0 (m) DEBRIS
CZ-6A DEB LEO 2024-12-21 08:13:09 0.0002111052 163.0 (m) DEBRIS
FENGYUN 1C DEB SSO 2024-09-29 08:38:04 0.0001395735 451.0 (m) DEBRIS

Associated space launch

Chinese polar orbiting meteorological satellite

FENGYUN 1C DEB was lifted into orbit during the mission ‘Long March 4B | Feng Yun 1C’, on board a Long March 4B space rocket.

The launch took place on May 10, 1999, 1:33 a.m. from Launch Complex 7.

For more information about the launch, click the button.

Launch to space Long March 4B | Feng Yun 1C
Long March 4B | Feng Yun 1C

Agency: N/A

Status: Launch Successful

Launch date: May 10, 1999, 1:33 a.m. UTC

Rocket: Long March 4B

Launch pad: Launch Complex 7

Location: Taiyuan Satellite Launch Center, People's Republic of China

...

Latest news about this satellite

There are no fresh news available about this satellite. Check back as we update our databases every day.


Newsletter sign-up

Weekly statistics, charts and insights to help you stay on top of the space industry.